Powrót do katalogu

PELICAN-3 300A

AktywnyŁącznośćSSO
NORAD 65315·PAYLOAD·🇺🇸 United States

Wystrzelony Aug 26, 2025 z Vandenberg Space Force Base

Loading…

Następne Przeloty (najbliższe 24 godziny)

TLE

ŚwieżeSource: CelesTrak SupGP

Epoka: Sep 14, 2026, 14:44 UTC

1 65315C 25188A   26257.61416667  .00009804  00000+0  23824-3 0  2572
2 65315  97.1893 332.4219 0000767  45.1452  85.8959 15.41032007    12

Śledź PELICAN-3 300A w czasie rzeczywistym z AllMySat

Download on the App Store